This demonstration page uses our WeatherBlox Daily Observations layout. Learn more.

Left ArrowRight Arrow

39.01783, -85.05884

Hourly Observations for June 15, 2015

Temp ( °F °C ) Dew Point ( °F °C ) Humidity (%) Winds ( mph kmh ) Pressure ( in mb ) Visibility ( mi km ) Precip ( " mm )
12:52 am 00:52 Mostly Cloudy 77 25 69 20.6 77 77 SSW 6 9 30.01 1016 10 16 N/A
1:52 am 01:52 Partly Cloudy 77 25 69 20.6 77 77 SW 6 9 30.02 1017 10 16 N/A
2:52 am 02:52 Cloudy 77 25 70 21.1 79 79 SW 5 7 30.02 1017 10 16 N/A
3:52 am 03:52 Mostly Cloudy 76 24.4 70 21.1 82 82 SW 3 6 30.02 1017 10 16 N/A
4:52 am 04:52 Mostly Cloudy 74 23.3 70 21.1 88 88 S 5 7 30.01 1016 10 16 N/A
5:52 am 05:52 Partly Cloudy 72 22.2 69 20.6 91 91 S 6 9 30.02 1017 10 16 N/A
6:52 am 06:52 Mostly Cloudy 74 23.3 70 21.1 88 88 SSW 6 9 30.03 1017 9 14 N/A
7:52 am 07:52 Mostly Cloudy 76 24.4 70 21.1 82 82 SW 7 11 30.04 1017 10 16 N/A
8:52 am 08:52 Partly Cloudy 80 26.7 71 21.7 74 74 WSW 9 15 30.05 1018 10 16 N/A
9:52 am 09:52 Mostly Cloudy 82 27.8 71 21.7 69 69 W 13 20 30.05 1018 10 16 N/A
10:52 am 10:52 Mostly Cloudy 83 28.3 71 21.7 67 67 W 12 19 30.05 1018 10 16 N/A
11:09 am 11:09 Mostly Cloudy 84 29 72 22 66 66 W 13 20 30.03 1017 10 16 N/A
11:52 am 11:52 Mostly Cloudy 85 29.4 70 21.1 61 61 WSW 10 17 30.04 1017 10 16 N/A
12:52 pm 12:52 Mostly Cloudy with Light Rain 84 28.9 70 21.1 63 63 WSW 10 17 30.04 1017 10 16 N/A
1:52 pm 13:52 Mostly Cloudy 76 24.4 71 21.7 85 85 SSW 7 11 30.04 1017 10 16 0.01 0.25
2:52 pm 14:52 Mostly Cloudy 86 30 73 22.8 65 65 SSW 13 20 30.00 1016 10 16 N/A
3:52 pm 15:52 Mostly Cloudy 88 31.1 69 20.6 54 54 SW 14 22 29.98 1015 10 16 N/A
4:52 pm 16:52 Partly Cloudy 89 31.7 70 21.1 53 53 SW 7 11 29.97 1015 10 16 N/A
5:52 pm 17:52 Partly Cloudy 90 32 68 20 49 49 SW 16 26 29.94 1014 10 16 N/A
6:52 pm 18:52 Partly Cloudy 88 31.1 68 20 52 52 SW 12 19 29.95 1014 10 16 N/A
7:52 pm 19:52 Partly Cloudy 87 30.6 69 20.6 55 55 WSW 8 13 29.94 1014 10 16 N/A
8:52 pm 20:52 Partly Cloudy 84 28.9 68 20 59 59 SW 7 11 29.95 1014 10 16 N/A
9:52 pm 21:52 Mostly Cloudy 84 28.9 68 20 59 59 SW 8 13 29.97 1015 10 16 N/A
10:52 pm 22:52 Clear 80 26.7 68 20 67 67 SSW 5 7 29.98 1015 10 16 N/A
11:52 pm 23:52 Partly Cloudy 79 26.1 68 20 69 69 S 6 9 29.99 1016 10 16 N/A

Powered by AerisWeather